This is the latest recevied weather packets stored in our database for station/object WA6ODQ-13. If no packets are shown the sender has not sent any weather packets the latest 10 day(s).
| Time | Temp. | Humidity | Pressure | Rain* | Wind** | Luminosity | Snow |
|---|---|---|---|---|---|---|---|
| 1777237269 | 16.67° C | 51% | 1010.8 hPa | 0 mm | - | 302 W/m² | - |
| 1777236965 | 17.78° C | 49% | 1010.9 hPa | 0 mm | - | 340 W/m² | - |
| 1777236663 | 17.22° C | 49% | 1010.8 hPa | 0 mm | - | 388 W/m² | - |
| 1777236357 | 16.67° C | 51% | 1010.8 hPa | 0 mm | - | 373 W/m² | - |
| 1777236054 | 16.67° C | 50% | 1011 hPa | 0 mm | - | 799 W/m² | - |
| 1777235750 | 16.67° C | 52% | 1011 hPa | 0 mm | - | 294 W/m² | - |
| 1777235447 | 16.67° C | 52% | 1010.8 hPa | 0 mm | - | 886 W/m² | - |
| 1777235143 | 16.67° C | 52% | 1010.8 hPa | 0 mm | - | 322 W/m² | - |
| 1777234838 | 17.22° C | 50% | 1010.8 hPa | 0 mm | - | 463 W/m² | - |
| 1777234535 | 16.67° C | 51% | 1010.7 hPa | 0 mm | - | 255 W/m² | - |
| 1777234229 | 17.78° C | 47% | 1010.5 hPa | 0 mm | - | 225 W/m² | - |
| 1777233926 | 17.78° C | 48% | 1010.7 hPa | 0 mm | - | 524 W/m² | - |
| 1777233622 | 17.22° C | 50% | 1010.7 hPa | 0 mm | - | 907 W/m² | - |
| 1777233321 | 16.67° C | 51% | 1010.7 hPa | 0 mm | - | 327 W/m² | - |
| 1777233017 | 17.22° C | 49% | 1010.4 hPa | 0 mm | - | 267 W/m² | - |
| 1777232715 | 17.22° C | 48% | 1010.5 hPa | 0 mm | - | 439 W/m² | - |
| 1777232413 | 16.67° C | 50% | 1010.9 hPa | 0 mm | - | 833 W/m² | - |
| 1777232109 | 16.67° C | 50% | 1010.7 hPa | 0 mm | - | 707 W/m² | - |
| 1777231807 | 16.67° C | 51% | 1010.6 hPa | 0 mm | - | 356 W/m² | - |
| 1777231503 | 16.67° C | 50% | 1010.5 hPa | 0 mm | - | 597 W/m² | - |
| 1777231199 | 16.67° C | 50% | 1010.4 hPa | 0 mm | - | 190 W/m² | - |
| 1777230895 | 17.22° C | 48% | 1010.5 hPa | 0 mm | - | 779 W/m² | - |
| 1777230590 | 16.67° C | 51% | 1010.6 hPa | 0 mm | - | 355 W/m² | - |
| 1777230286 | 16.67° C | 50% | 1010.5 hPa | 0 mm | - | 262 W/m² | - |
| 1777229984 | 16.67° C | 49% | 1010.6 hPa | 0 mm | - | 671 W/m² | - |
* Rain latest hour (hover to see other rain measurements)
** Current wind speed in m/s (hover to see current wind gust speed)